Location: Battersea Observatory
(44.4318°N, 76.3841°W)
Time: 08:29:14
(UTC-05:00)

ISS - Pass Details

Date: 01 December 2021
Orbit: 413 x 422 km, 51.6° (Epoch: 24 January)

Event Time Altitude Azimuth Distance (km) Brightness Sun altitude
Rises 18:49:55 0° 301° (WNW) 2,382 0.8 -24.8°
Reaches altitude 10° 18:52:04 10° 307° (NW) 1,512 -0.4 -25.2°
Enters shadow 18:53:20 20° 315° (NW) 1,029 -1.4 -25.4°
